Time,TemperatureF,DewpointF,PressureIn,WindDirection,WindDirectionDegrees,WindSpeedMPH,WindSpeedGustMPH,Humidity,HourlyPrecipIn,Conditions,Clouds,dailyrainin,SoftwareType,DateUTC
2013-02-23 00:08:00,-999.0,-99.9,29.78,North,-999,-999.0,-999.0,-999,-99.99,,,0.00,weatherlink.com 1.10,2013-02-23 08:08:00,
2013-02-23 00:23:00,-999.0,-99.9,29.79,North,-999,-999.0,-999.0,-999,-99.99,,,0.00,weatherlink.com 1.10,2013-02-23 08:23:00,
2013-02-23 00:38:00,-999.0,-99.9,29.80,North,-999,-999.0,-999.0,-999,-99.99,,,0.00,weatherlink.com 1.10,2013-02-23 08:38:00,
2013-02-23 00:53:00,-999.0,-99.9,29.80,North,-999,-999.0,-999.0,-999,-99.99,,,0.00,weatherlink.com 1.10,2013-02-23 08:53:00,
2013-02-23 01:08:00,-999.0,-99.9,29.81,North,-999,-999.0,-999.0,-999,-99.99,,,0.00,weatherlink.com 1.10,2013-02-23 09:08:00,
2013-02-23 01:23:00,-999.0,-99.9,29.81,North,-999,-999.0,-999.0,-999,-99.99,,,0.00,weatherlink.com 1.10,2013-02-23 09:23:00,
2013-02-23 01:38:00,-999.0,-99.9,29.82,North,-999,-999.0,-999.0,-999,-99.99,,,0.00,weatherlink.com 1.10,2013-02-23 09:38:00,
2013-02-23 01:53:00,-999.0,-99.9,29.82,North,-999,-999.0,-999.0,-999,-99.99,,,0.00,weatherlink.com 1.10,2013-02-23 09:53:00,
2013-02-23 02:08:00,-999.0,-99.9,29.82,North,-999,-999.0,-999.0,-999,-99.99,,,0.00,weatherlink.com 1.10,2013-02-23 10:08:00,
2013-02-23 02:23:00,-999.0,-99.9,29.83,North,-999,-999.0,-999.0,-999,-99.99,,,0.00,weatherlink.com 1.10,2013-02-23 10:23:00,
2013-02-23 02:38:00,-999.0,-99.9,29.83,North,-999,-999.0,-999.0,-999,-99.99,,,0.00,weatherlink.com 1.10,2013-02-23 10:38:00,
2013-02-23 02:53:00,-999.0,-99.9,29.84,North,-999,-999.0,-999.0,-999,-99.99,,,0.00,weatherlink.com 1.10,2013-02-23 10:53:00,
2013-02-23 03:08:00,-999.0,-99.9,29.84,North,-999,-999.0,-999.0,-999,-99.99,,,0.00,weatherlink.com 1.10,2013-02-23 11:08:00,
2013-02-23 03:23:00,-999.0,-99.9,29.84,North,-999,-999.0,-999.0,-999,-99.99,,,0.00,weatherlink.com 1.10,2013-02-23 11:23:00,
2013-02-23 03:38:00,-999.0,-99.9,29.84,North,-999,-999.0,-999.0,-999,-99.99,,,0.00,weatherlink.com 1.10,2013-02-23 11:38:00,
2013-02-23 03:53:00,-999.0,-99.9,29.85,North,-999,-999.0,-999.0,-999,-99.99,,,0.00,weatherlink.com 1.10,2013-02-23 11:53:00,
2013-02-23 04:08:00,-999.0,-99.9,29.86,North,-999,-999.0,-999.0,-999,-99.99,,,0.00,weatherlink.com 1.10,2013-02-23 12:08:00,
2013-02-23 04:23:00,-999.0,-99.9,29.86,North,-999,-999.0,-999.0,-999,-99.99,,,0.00,weatherlink.com 1.10,2013-02-23 12:23:00,
2013-02-23 04:38:00,-999.0,-99.9,29.87,North,-999,-999.0,-999.0,-999,-99.99,,,0.00,weatherlink.com 1.10,2013-02-23 12:38:00,
2013-02-23 04:53:00,-999.0,-99.9,29.87,North,-999,-999.0,-999.0,-999,-99.99,,,0.00,weatherlink.com 1.10,2013-02-23 12:53:00,
2013-02-23 05:08:00,-999.0,-99.9,29.88,North,-999,-999.0,-999.0,-999,-99.99,,,0.00,weatherlink.com 1.10,2013-02-23 13:08:00,
2013-02-23 05:23:00,-999.0,-99.9,29.89,North,-999,-999.0,-999.0,-999,-99.99,,,0.00,weatherlink.com 1.10,2013-02-23 13:23:00,
2013-02-23 05:38:00,-999.0,-99.9,29.89,North,-999,-999.0,-999.0,-999,-99.99,,,0.00,weatherlink.com 1.10,2013-02-23 13:38:00,
2013-02-23 05:53:00,-999.0,-99.9,29.90,North,-999,-999.0,-999.0,-999,-99.99,,,0.00,weatherlink.com 1.10,2013-02-23 13:53:00,
2013-02-23 06:08:00,-999.0,-99.9,29.91,North,-999,-999.0,-999.0,-999,-99.99,,,0.00,weatherlink.com 1.10,2013-02-23 14:08:00,
2013-02-23 06:23:00,-999.0,-99.9,29.93,North,-999,-999.0,-999.0,-999,-99.99,,,0.00,weatherlink.com 1.10,2013-02-23 14:23:00,
2013-02-23 06:38:00,-999.0,-99.9,29.93,North,-999,-999.0,-999.0,-999,-99.99,,,0.00,weatherlink.com 1.10,2013-02-23 14:38:00,
2013-02-23 06:53:00,-999.0,-99.9,29.94,North,-999,-999.0,-999.0,-999,-99.99,,,0.00,weatherlink.com 1.10,2013-02-23 14:53:00,
2013-02-23 07:08:00,-999.0,-99.9,29.95,North,-999,-999.0,-999.0,-999,-99.99,,,0.00,weatherlink.com 1.10,2013-02-23 15:08:00,
2013-02-23 07:23:00,-999.0,-99.9,29.96,North,-999,-999.0,-999.0,-999,-99.99,,,0.00,weatherlink.com 1.10,2013-02-23 15:23:00,
2013-02-23 07:38:00,-999.0,-99.9,29.97,North,-999,-999.0,-999.0,-999,-99.99,,,0.00,weatherlink.com 1.10,2013-02-23 15:38:00,
2013-02-23 07:53:00,-999.0,-99.9,29.98,North,-999,-999.0,-999.0,-999,-99.99,,,0.00,weatherlink.com 1.10,2013-02-23 15:53:00,
2013-02-23 08:08:00,-999.0,-99.9,29.99,North,-999,-999.0,-999.0,-999,-99.99,,,0.00,weatherlink.com 1.10,2013-02-23 16:08:00,
2013-02-23 08:23:00,-999.0,-99.9,29.99,North,-999,-999.0,-999.0,-999,-99.99,,,0.00,weatherlink.com 1.10,2013-02-23 16:23:00,
2013-02-23 08:38:00,-999.0,-99.9,29.99,North,-999,-999.0,-999.0,-999,-99.99,,,0.00,weatherlink.com 1.10,2013-02-23 16:38:00,
2013-02-23 08:53:00,-999.0,-99.9,30.01,North,-999,-999.0,-999.0,-999,-99.99,,,0.00,weatherlink.com 1.10,2013-02-23 16:53:00,
2013-02-23 09:08:00,-999.0,-99.9,30.02,North,-999,-999.0,-999.0,-999,-99.99,,,0.00,weatherlink.com 1.10,2013-02-23 17:08:00,
2013-02-23 09:23:00,40.5,38.0,30.03,SW,231,0.0,-999.0,89,-99.99,,,0.00,weatherlink.com 1.10,2013-02-23 17:23:00,
2013-02-23 09:38:00,41.1,38.0,30.03,SW,223,0.0,-999.0,87,-99.99,,,0.00,weatherlink.com 1.10,2013-02-23 17:38:00,
2013-02-23 09:53:00,41.6,38.0,30.05,WSW,238,1.0,-999.0,86,-99.99,,,0.00,weatherlink.com 1.10,2013-02-23 17:53:00,
2013-02-23 10:08:00,42.0,38.0,30.05,SW,214,3.0,-999.0,85,-99.99,,,0.00,weatherlink.com 1.10,2013-02-23 18:08:00,
2013-02-23 10:23:00,42.6,38.0,30.06,SSW,196,0.0,-999.0,84,-99.99,,,0.00,weatherlink.com 1.10,2013-02-23 18:23:00,
2013-02-23 10:38:00,42.7,38.0,30.07,WSW,257,5.0,-999.0,83,-99.99,,,0.00,weatherlink.com 1.10,2013-02-23 18:38:00,
2013-02-23 10:53:00,43.3,39.0,30.07,West,265,2.0,-999.0,83,-99.99,,,0.00,weatherlink.com 1.10,2013-02-23 18:53:00,
2013-02-23 11:08:00,43.8,38.0,30.08,SSW,202,2.0,-999.0,81,-99.99,,,0.00,weatherlink.com 1.10,2013-02-23 19:08:00,
2013-02-23 11:23:00,44.3,39.0,30.08,WSW,246,0.0,-999.0,81,-99.99,,,0.00,weatherlink.com 1.10,2013-02-23 19:23:00,
2013-02-23 11:38:00,45.8,40.0,30.09,SW,234,6.0,-999.0,80,-99.99,,,0.00,weatherlink.com 1.10,2013-02-23 19:38:00,
2013-02-23 11:53:00,45.5,39.0,30.09,SW,229,3.0,-999.0,78,-99.99,,,0.00,weatherlink.com 1.10,2013-02-23 19:53:00,
2013-02-23 12:07:00,45.5,39.0,30.10,East,98,0.0,-999.0,77,-99.99,,,0.00,weatherlink.com 1.10,2013-02-23 20:07:00,
2013-02-23 12:22:00,46.5,40.0,30.10,SSW,202,2.0,-999.0,78,-99.99,,,0.00,weatherlink.com 1.10,2013-02-23 20:22:00,
2013-02-23 12:38:00,47.2,41.0,30.10,SW,222,3.0,-999.0,78,-99.99,,,0.00,weatherlink.com 1.10,2013-02-23 20:38:00,
2013-02-23 12:53:00,47.6,40.0,30.09,East,99,0.0,-999.0,75,-99.99,,,0.00,weatherlink.com 1.10,2013-02-23 20:53:00,
2013-02-23 13:08:00,48.0,41.0,30.10,NE,42,0.0,-999.0,76,-99.99,,,0.00,weatherlink.com 1.10,2013-02-23 21:08:00,
2013-02-23 13:23:00,48.4,41.0,30.10,North,11,0.0,-999.0,76,-99.99,,,0.00,weatherlink.com 1.10,2013-02-23 21:23:00,
2013-02-23 13:38:00,48.6,41.0,30.10,East,88,0.0,-999.0,74,-99.99,,,0.00,weatherlink.com 1.10,2013-02-23 21:38:00,
2013-02-23 13:53:00,48.8,40.0,30.10,ESE,123,0.0,-999.0,73,-99.99,,,0.00,weatherlink.com 1.10,2013-02-23 21:53:00,
2013-02-23 14:08:00,48.6,40.0,30.11,SW,234,1.0,-999.0,71,-99.99,,,0.00,weatherlink.com 1.10,2013-02-23 22:08:00,
2013-02-23 14:23:00,49.1,40.0,30.11,WNW,300,0.0,-999.0,72,-99.99,,,0.00,weatherlink.com 1.10,2013-02-23 22:23:00,
2013-02-23 14:38:00,49.4,40.0,30.12,WNW,298,0.0,-999.0,70,-99.99,,,0.00,weatherlink.com 1.10,2013-02-23 22:38:00,
2013-02-23 14:53:00,49.1,39.0,30.13,NW,304,0.0,-999.0,69,-99.99,,,0.00,weatherlink.com 1.10,2013-02-23 22:53:00,
2013-02-23 15:08:00,48.9,39.0,30.13,NW,305,0.0,-999.0,70,-99.99,,,0.00,weatherlink.com 1.10,2013-02-23 23:08:00,
2013-02-23 15:23:00,49.2,40.0,30.13,North,360,0.0,-999.0,71,-99.99,,,0.00,weatherlink.com 1.10,2013-02-23 23:23:00,
2013-02-23 15:38:00,49.8,40.0,30.14,East,101,0.0,-999.0,69,-99.99,,,0.00,weatherlink.com 1.10,2013-02-23 23:38:00,
2013-02-23 15:53:00,50.0,39.0,30.14,SE,128,0.0,-999.0,66,-99.99,,,0.00,weatherlink.com 1.10,2013-02-23 23:53:00,
2013-02-23 16:08:00,50.3,40.0,30.14,ENE,57,0.0,-999.0,69,-99.99,,,0.00,weatherlink.com 1.10,2013-02-24 00:08:00,
2013-02-23 16:23:00,51.0,41.0,30.14,South,178,1.0,-999.0,68,-99.99,,,0.00,weatherlink.com 1.10,2013-02-24 00:23:00,
2013-02-23 16:38:00,50.2,40.0,30.15,North,350,0.0,-999.0,67,-99.99,,,0.00,weatherlink.com 1.10,2013-02-24 00:38:00,
2013-02-23 16:53:00,49.2,40.0,30.15,NNW,331,0.0,-999.0,70,-99.99,,,0.00,weatherlink.com 1.10,2013-02-24 00:53:00,
2013-02-23 17:08:00,47.2,40.0,30.15,NNE,15,2.0,-999.0,75,-99.99,,,0.00,weatherlink.com 1.10,2013-02-24 01:08:00,
2013-02-23 17:23:00,45.5,39.0,30.16,NNE,17,0.0,-999.0,78,-99.99,,,0.00,weatherlink.com 1.10,2013-02-24 01:23:00,
2013-02-23 17:38:00,44.3,39.0,30.16,North,5,0.0,-999.0,81,-99.99,,,0.00,weatherlink.com 1.10,2013-02-24 01:38:00,
2013-02-23 17:53:00,-999.0,-99.9,30.17,North,-999,-999.0,-999.0,-999,-99.99,,,0.00,weatherlink.com 1.10,2013-02-24 01:53:00,
2013-02-23 18:08:00,-999.0,-99.9,30.18,North,-999,-999.0,-999.0,-999,-99.99,,,0.00,weatherlink.com 1.10,2013-02-24 02:08:00,
2013-02-23 18:23:00,-999.0,-99.9,30.19,North,-999,-999.0,-999.0,-999,-99.99,,,0.00,weatherlink.com 1.10,2013-02-24 02:23:00,
2013-02-23 18:38:00,-999.0,-99.9,30.19,North,-999,-999.0,-999.0,-999,-99.99,,,0.00,weatherlink.com 1.10,2013-02-24 02:38:00,
2013-02-23 18:53:00,-999.0,-99.9,30.19,North,-999,-999.0,-999.0,-999,-99.99,,,0.00,weatherlink.com 1.10,2013-02-24 02:53:00,
2013-02-23 19:08:00,-999.0,-99.9,30.20,North,-999,-999.0,-999.0,-999,-99.99,,,0.00,weatherlink.com 1.10,2013-02-24 03:08:00,
2013-02-23 19:23:00,-999.0,-99.9,30.20,North,-999,-999.0,-999.0,-999,-99.99,,,0.00,weatherlink.com 1.10,2013-02-24 03:23:00,
2013-02-23 19:38:00,-999.0,-99.9,30.21,North,-999,-999.0,-999.0,-999,-99.99,,,0.00,weatherlink.com 1.10,2013-02-24 03:38:00,
2013-02-23 19:53:00,-999.0,-99.9,30.22,North,-999,-999.0,-999.0,-999,-99.99,,,0.00,weatherlink.com 1.10,2013-02-24 03:53:00,
2013-02-23 20:07:00,-999.0,-99.9,30.22,North,-999,-999.0,-999.0,-999,-99.99,,,0.00,weatherlink.com 1.10,2013-02-24 04:07:00,
2013-02-23 20:22:00,-999.0,-99.9,30.22,North,-999,-999.0,-999.0,-999,-99.99,,,0.00,weatherlink.com 1.10,2013-02-24 04:22:00,
2013-02-23 20:37:00,-999.0,-99.9,30.23,North,-999,-999.0,-999.0,-999,-99.99,,,0.00,weatherlink.com 1.10,2013-02-24 04:37:00,
2013-02-23 20:53:00,-999.0,-99.9,30.23,North,-999,-999.0,-999.0,-999,-99.99,,,0.00,weatherlink.com 1.10,2013-02-24 04:53:00,
2013-02-23 21:08:00,-999.0,-99.9,30.23,North,-999,-999.0,-999.0,-999,-99.99,,,0.00,weatherlink.com 1.10,2013-02-24 05:08:00,
2013-02-23 21:23:00,-999.0,-99.9,30.23,North,-999,-999.0,-999.0,-999,-99.99,,,0.00,weatherlink.com 1.10,2013-02-24 05:23:00,
2013-02-23 21:38:00,-999.0,-99.9,30.24,North,-999,-999.0,-999.0,-999,-99.99,,,0.00,weatherlink.com 1.10,2013-02-24 05:38:00,
2013-02-23 21:53:00,-999.0,-99.9,30.24,North,-999,-999.0,-999.0,-999,-99.99,,,0.00,weatherlink.com 1.10,2013-02-24 05:53:00,
2013-02-23 22:08:00,-999.0,-99.9,30.25,North,-999,-999.0,-999.0,-999,-99.99,,,0.00,weatherlink.com 1.10,2013-02-24 06:08:00,
2013-02-23 22:23:00,-999.0,-99.9,30.25,North,-999,-999.0,-999.0,-999,-99.99,,,0.00,weatherlink.com 1.10,2013-02-24 06:23:00,
2013-02-23 22:38:00,-999.0,-99.9,30.25,North,-999,-999.0,-999.0,-999,-99.99,,,0.00,weatherlink.com 1.10,2013-02-24 06:38:00,
2013-02-23 22:53:00,-999.0,-99.9,30.25,North,-999,-999.0,-999.0,-999,-99.99,,,0.00,weatherlink.com 1.10,2013-02-24 06:53:00,
2013-02-23 23:08:00,-999.0,-99.9,30.25,North,-999,-999.0,-999.0,-999,-99.99,,,0.00,weatherlink.com 1.10,2013-02-24 07:08:00,
2013-02-23 23:23:00,-999.0,-99.9,30.25,North,-999,-999.0,-999.0,-999,-99.99,,,0.00,weatherlink.com 1.10,2013-02-24 07:23:00,
2013-02-23 23:38:00,-999.0,-99.9,30.26,North,-999,-999.0,-999.0,-999,-99.99,,,0.00,weatherlink.com 1.10,2013-02-24 07:38:00,
2013-02-23 23:53:00,-999.0,-99.9,30.26,North,-999,-999.0,-999.0,-999,-99.99,,,0.00,weatherlink.com 1.10,2013-02-24 07:53:00,